• In Deutschland
  • Länderverzeichnis
  • Für 7 Tage
  • Wassertemperatur
  • Satellitenkarten
  • Wetterkarte
  • Widgets
  • user-avatar
    Anmelden

    Stündliche Wetter Heidenheim an der Brenz

    Heute, 12 Dezember, Dienstag

    Zeit Temperatur Niederschläge Wind Luftdruck Luftfeuchtigkeit
    00:00 +1°C° 0,5 mm 5 m/S 698 mmHg 89%
    01:00 +1°C° 0 mm 4 m/S 699 mmHg 89%
    02:00 +1°C° 0,2 mm 5 m/S 700 mmHg 88%
    03:00 +1°C° 0,2 mm 5 m/S 701 mmHg 87%
    04:00 +1°C° 0,2 mm 6 m/S 702 mmHg 86%
    05:00 -1°C° 0 mm 6 m/S 703 mmHg 86%
    06:00 -2°C° 0 mm 6 m/S 704 mmHg 85%
    07:00 -3°C° 0 mm 6 m/S 706 mmHg 85%
    08:00 -3°C° 0 mm 6 m/S 707 mmHg 85%
    09:00 -3°C° 0 mm 6 m/S 708 mmHg 85%
    10:00 -3°C° 0 mm 6 m/S 709 mmHg 85%
    11:00 -1°C° 0 mm 5 m/S 710 mmHg 84%
    12:00 -1°C° 0 mm 5 m/S 711 mmHg 84%
    13:00 -1°C° 0 mm 4 m/S 712 mmHg 83%
    14:00 -1°C° 0,1 mm 4 m/S 713 mmHg 85%
    15:00 0°C° 0,1 mm 3 m/S 713 mmHg 87%
    16:00 0°C° 0,1 mm 3 m/S 714 mmHg 88%
    17:00 -1°C° 0,1 mm 3 m/S 714 mmHg 89%
    18:00 -1°C° 0,1 mm 3 m/S 715 mmHg 90%
    19:00 -2°C° 0,1 mm 3 m/S 716 mmHg 91%
    20:00 -2°C° 0 mm 3 m/S 716 mmHg 91%
    21:00 -2°C° 0 mm 3 m/S 717 mmHg 91%
    22:00 -2°C° 0 mm 3 m/S 718 mmHg 90%
    23:00 -4°C° 0 mm 3 m/S 718 mmHg 90%

    Morgen, 13 Dezember, Mittwoch

    Zeit Temperatur Niederschläge Wind Luftdruck Luftfeuchtigkeit
    00:00 -4°C° 0 mm 3 m/S 718 mmHg 90%
    01:00 -4°C° 0 mm 3 m/S 718 mmHg 90%
    02:00 -4°C° 0 mm 3 m/S 718 mmHg 90%
    03:00 -5°C° 0 mm 3 m/S 718 mmHg 91%
    04:00 -5°C° 0 mm 3 m/S 718 mmHg 91%
    05:00 -5°C° 0 mm 3 m/S 718 mmHg 90%
    06:00 -5°C° 0 mm 3 m/S 718 mmHg 89%
    07:00 -5°C° 0 mm 3 m/S 718 mmHg 89%
    08:00 -4°C° 0 mm 4 m/S 718 mmHg 84%
    09:00 -4°C° 0 mm 5 m/S 717 mmHg 80%
    10:00 -4°C° 0 mm 5 m/S 717 mmHg 75%
    11:00 -2°C° 0 mm 5 m/S 716 mmHg 73%
    12:00 -1°C° 0 mm 5 m/S 715 mmHg 70%
    13:00 0°C° 0 mm 5 m/S 714 mmHg 67%
    14:00 0°C° 0,2 mm 5 m/S 714 mmHg 70%
    15:00 0°C° 0,2 mm 5 m/S 713 mmHg 72%
    16:00 -1°C° 0,2 mm 5 m/S 712 mmHg 75%
    17:00 0°C° 0,7 mm 5 m/S 712 mmHg 77%
    18:00 -1°C° 0,7 mm 6 m/S 711 mmHg 79%
    19:00 +1°C° 0,7 mm 6 m/S 711 mmHg 81%
    20:00 +1°C° 0,3 mm 6 m/S 710 mmHg 82%
    21:00 +1°C° 0,3 mm 6 m/S 709 mmHg 83%
    22:00 +1°C° 0,3 mm 6 m/S 709 mmHg 84%
    23:00 0°C° 0,4 mm 7 m/S 708 mmHg 84%

    übermorgen, 14 Dezember, Donnerstag

    Zeit Temperatur Niederschläge Wind Luftdruck Luftfeuchtigkeit
    00:00 +2°C° 0,4 mm 7 m/S 707 mmHg 84%
    01:00 +1°C° 0,4 mm 8 m/S 707 mmHg 84%
    02:00 +2°C° 0,3 mm 8 m/S 706 mmHg 85%
    03:00 +2°C° 0,3 mm 8 m/S 706 mmHg 85%
    04:00 +2°C° 0,3 mm 8 m/S 706 mmHg 86%
    05:00 +2°C° 0,5 mm 8 m/S 706 mmHg 86%
    06:00 +2°C° 0,5 mm 8 m/S 706 mmHg 86%
    07:00 +3°C° 0,5 mm 7 m/S 706 mmHg 86%
    08:00 +2°C° 0,3 mm 7 m/S 707 mmHg 85%
    09:00 +2°C° 0,3 mm 7 m/S 707 mmHg 85%
    10:00 +2°C° 0,3 mm 7 m/S 708 mmHg 84%
    11:00 +2°C° 0,3 mm 6 m/S 707 mmHg 84%
    12:00 +2°C° 0,3 mm 5 m/S 707 mmHg 85%
    13:00 +3°C° 0,3 mm 4 m/S 706 mmHg 85%
    14:00 +3°C° 0,4 mm 4 m/S 706 mmHg 85%
    15:00 +2°C° 0,4 mm 5 m/S 705 mmHg 84%
    16:00 +2°C° 0,4 mm 5 m/S 704 mmHg 83%
    17:00 +2°C° 1 mm 5 m/S 703 mmHg 84%
    18:00 +2°C° 1 mm 6 m/S 702 mmHg 85%
    19:00 +2°C° 1 mm 7 m/S 702 mmHg 86%
    20:00 +2°C° 2,7 mm 6 m/S 701 mmHg 87%
    21:00 +2°C° 2,7 mm 6 m/S 701 mmHg 87%
    22:00 +1°C° 2,7 mm 6 m/S 701 mmHg 88%
    23:00 +1°C° 0,7 mm 6 m/S 702 mmHg 87%

    15 Dezember, Freitag

    Zeit Temperatur Niederschläge Wind Luftdruck Luftfeuchtigkeit
    00:00 0°C° 0,7 mm 5 m/S 703 mmHg 86%
    01:00 0°C° 0,7 mm 5 m/S 704 mmHg 85%
    02:00 -1°C° 0 mm 5 m/S 704 mmHg 86%
    03:00 -1°C° 0 mm 4 m/S 704 mmHg 86%
    04:00 -2°C° 0 mm 4 m/S 704 mmHg 87%
    05:00 -2°C° 0 mm 4 m/S 704 mmHg 87%
    06:00 -2°C° 0 mm 5 m/S 704 mmHg 86%
    07:00 -2°C° 0 mm 5 m/S 705 mmHg 86%
    08:00 -1°C° 0 mm 5 m/S 705 mmHg 84%
    09:00 -2°C° 0 mm 6 m/S 705 mmHg 82%
    10:00 -1°C° 0 mm 7 m/S 705 mmHg 80%
    11:00 -1°C° 0 mm 7 m/S 705 mmHg 78%
    12:00 0°C° 0 mm 7 m/S 704 mmHg 75%
    13:00 0°C° 0 mm 7 m/S 704 mmHg 73%
    14:00 0°C° 0,1 mm 7 m/S 704 mmHg 75%
    15:00 -1°C° 0,1 mm 6 m/S 704 mmHg 77%
    16:00 -1°C° 0,1 mm 6 m/S 704 mmHg 79%
    17:00 -1°C° 0,2 mm 6 m/S 704 mmHg 81%
    18:00 -2°C° 0,2 mm 6 m/S 705 mmHg 82%
    19:00 -2°C° 0,2 mm 6 m/S 705 mmHg 83%
    20:00 -2°C° 0,2 mm 6 m/S 706 mmHg 85%
    21:00 -2°C° 0,2 mm 6 m/S 706 mmHg 86%
    22:00 -3°C° 0,2 mm 6 m/S 707 mmHg 87%
    23:00 -2°C° 0,3 mm 5 m/S 707 mmHg 88%

    16 Dezember, Samstag

    Zeit Temperatur Niederschläge Wind Luftdruck Luftfeuchtigkeit
    00:00 -2°C° 0,3 mm 5 m/S 708 mmHg 88%
    01:00 -2°C° 0,3 mm 5 m/S 708 mmHg 88%
    02:00 -2°C° 0,3 mm 5 m/S 709 mmHg 89%
    03:00 -2°C° 0,3 mm 5 m/S 709 mmHg 90%
    04:00 -2°C° 0,3 mm 5 m/S 710 mmHg 91%
    05:00 -2°C° 0,1 mm 5 m/S 710 mmHg 90%
    06:00 -2°C° 0,1 mm 5 m/S 711 mmHg 90%
    07:00 -2°C° 0,1 mm 5 m/S 712 mmHg 89%
    08:00 -2°C° 0,1 mm 5 m/S 712 mmHg 88%
    09:00 -2°C° 0,1 mm 5 m/S 713 mmHg 87%
    10:00 -2°C° 0,1 mm 5 m/S 713 mmHg 87%
    11:00 -2°C° 0,1 mm 6 m/S 714 mmHg 84%
    12:00 -2°C° 0,1 mm 6 m/S 714 mmHg 82%
    13:00 -2°C° 0,1 mm 6 m/S 714 mmHg 80%
    14:00 -1°C° 0,1 mm 5 m/S 714 mmHg 81%
    15:00 -1°C° 0,1 mm 5 m/S 714 mmHg 83%
    16:00 -2°C° 0,1 mm 5 m/S 714 mmHg 85%
    17:00 -2°C° 0,5 mm 5 m/S 714 mmHg 87%
    18:00 -2°C° 0,5 mm 5 m/S 715 mmHg 89%
    19:00 -2°C° 0,5 mm 5 m/S 715 mmHg 90%
    20:00 -2°C° 0,4 mm 5 m/S 715 mmHg 91%
    21:00 -2°C° 0,4 mm 4 m/S 716 mmHg 92%
    22:00 -2°C° 0,4 mm 4 m/S 716 mmHg 93%
    23:00 -2°C° 0,4 mm 4 m/S 716 mmHg 93%

    17 Dezember, Sonntag

    Zeit Temperatur Niederschläge Wind Luftdruck Luftfeuchtigkeit
    00:00 -2°C° 0,4 mm 4 m/S 716 mmHg 94%
    01:00 -3°C° 0,4 mm 4 m/S 716 mmHg 94%
    02:00 -2°C° 0,1 mm 3 m/S 717 mmHg 94%
    03:00 -2°C° 0,1 mm 3 m/S 717 mmHg 95%
    04:00 -4°C° 0,1 mm 3 m/S 717 mmHg 95%
    05:00 -4°C° 0,1 mm 3 m/S 718 mmHg 95%
    06:00 -5°C° 0,1 mm 3 m/S 718 mmHg 95%
    07:00 -5°C° 0,1 mm 3 m/S 718 mmHg 95%
    08:00 -5°C° 0 mm 3 m/S 719 mmHg 94%
    09:00 -4°C° 0 mm 3 m/S 720 mmHg 93%
    10:00 -4°C° 0 mm 3 m/S 720 mmHg 92%
    11:00 -3°C° 0 mm 4 m/S 720 mmHg 90%
    12:00 -3°C° 0 mm 4 m/S 721 mmHg 89%
    13:00 -2°C° 0 mm 4 m/S 721 mmHg 87%
    14:00 -3°C° 0 mm 4 m/S 721 mmHg 88%
    15:00 -2°C° 0 mm 3 m/S 721 mmHg 89%
    16:00 -2°C° 0 mm 3 m/S 722 mmHg 89%
    17:00 -2°C° 0 mm 3 m/S 722 mmHg 90%
    18:00 -2°C° 0 mm 3 m/S 723 mmHg 92%
    19:00 -2°C° 0 mm 3 m/S 723 mmHg 93%
    20:00 -3°C° 0 mm 2 m/S 724 mmHg 93%
    21:00 -3°C° 0 mm 2 m/S 724 mmHg 93%
    22:00 -4°C° 0 mm 2 m/S 724 mmHg 93%
    23:00 -4°C° 0 mm 2 m/S 724 mmHg 92%
    Mehr zeigen